Regional Weather Roundup
Issued by NWS Nashville, TN

Home | Current Version | Previous Version | Text Only | Print | Product List | Glossary On
Versions: 1 2 3 4 5 6 7 8 9 10 11 12 13 14 15 16 17 18 19 20 21 22 23 24 25 26 27
000
ASUS44 KOHX 222010
RWROHX
MIDDLE TENNESSEE HOURLY WEATHER ROUNDUP
NATIONAL WEATHER SERVICE NASHVILLE TN
200 PM CST MON JAN 22 2018

NOTE: "FAIR" INDICATES FEW OR NO CLOUDS BELOW 12,000 FEET WITH
NO SIGNIFICANT WEATHER AND/OR OBSTRUCTIONS TO VISIBILITY.

* THESE REPORTS ARE NOT UNDER NWS QUALITY CONTROL AND MAY NOT
  REPORT WEATHER SUCH AS PRECIPITATION AND FOG.


TNZ005>011-023>034-057-059-062>066-078-080-222100
...NORTHERN MIDDLE TENNESSEE...

CITY           SKY/WX    TMP DP  RH WIND       PRES   REMARKS
CLARKSVILLE    CLOUDY    60  53  77 S18G28    29.67F
CROSSVILLE     LGT RAIN  51  49  92 S10G22    29.86F
GALLATIN       CLOUDY    59  54  82 S12G22    29.78F
DICKSON          N/A     56  56 100 S15       29.70F
NASHVILLE      PTSUNNY   61  55  81 S17       29.74F
PORTLAND       CLOUDY    55  54  94 S13G20    29.73F
SMYRNA         PTSUNNY   62  55  77 S12G25    29.75F
SPARTA         MOSUNNY   55  52  88 S14G21    29.81F
SPRINGFIELD    CLOUDY    57  55  94 S13G21    29.69F
WEST NASHVILLE CLOUDY    61  55  82 S10G18    29.71F
$$
TNZ056-058-060-061-075>077-079-093>097-222100
...SOUTHERN MIDDLE TENNESSEE...

CITY           SKY/WX    TMP DP  RH WIND       PRES   REMARKS
COLUMBIA       CLOUDY    63  59  88 S18G33    29.73F
FAYETTEVILLE   CLOUDY    59  55  88 S15G21    29.80F
MCMINNVILLE    SUNNY     61  54  77 VRB6G16   29.80F
SHELBYVILLE    PTSUNNY   59  55  88 S17G25    29.79F
TULLAHOMA      PTSUNNY   59  54  82 S17G23    29.80F
WINCHESTER     MOSUNNY   59  54  82 S21G32    29.81F
$$


...KEY TO REMARKS...
VSB - VISIBILITY IN MILES
WCI - WIND CHILL INDEX
HX  - HEAT INDEX





USA.gov is the U.S. government's official web portal to all federal, state and local government web resources and services.